Location: Lafig�re
(44.4503°N, 4.0357°E)
Time: 16:29:34
(UTC+00:00)

S-56A Canister/Altair - Pass Details

Date: 21 January 2021
Orbit: 631 x 2501 km, 38.9° (Epoch: 04 March)

Event Time Altitude Azimuth Distance (km) Brightness Sun altitude
Rises 02:37:20 0° 222° (SW) 2,952 - -48.4°
Reaches altitude 10° 02:40:02 10° 206° (SSW) 2,001 - -48.0°
Maximum altitude 02:43:28 22° 154° (SSE) 1,396 - -47.4°
Drops below altitude 10° 02:47:08 10° 104° (ESE) 2,157 - -46.8°
Exits shadow 02:48:36 - 95° (E) 2,667 10.8 -46.6°
Sets 02:50:11 0° 89° (E) 3,252 11.4 -46.3°
